Hourly Weather Sopron

Today, 16 January, Saturday

Time Temperature Precipitation Wind Pressure Humidity
00:00 -5°C° 0.1 mm 5 mps 749 mmHg 86%
01:00 -5°C° 0 mm 5 mps 748 mmHg 89%
02:00 -5°C° 0 mm 5 mps 748 mmHg 87%
03:00 -6°C° 0 mm 5 mps 748 mmHg 85%
04:00 -6°C° 0 mm 5 mps 748 mmHg 84%
05:00 -6°C° 0 mm 5 mps 749 mmHg 84%
06:00 -6°C° 0 mm 5 mps 749 mmHg 84%
07:00 -5°C° 0 mm 4 mps 749 mmHg 88%
08:00 -6°C° 0 mm 5 mps 749 mmHg 84%
09:00 -5°C° 0 mm 6 mps 749 mmHg 79%
10:00 -5°C° 0 mm 6 mps 749 mmHg 74%
11:00 -5°C° 0 mm 6 mps 749 mmHg 70%
12:00 -4°C° 0 mm 7 mps 749 mmHg 67%
13:00 -4°C° 0 mm 7 mps 749 mmHg 63%
14:00 -5°C° 0 mm 6 mps 748 mmHg 66%
15:00 -5°C° 0 mm 5 mps 748 mmHg 70%
16:00 -4°C° 0 mm 4 mps 748 mmHg 74%
17:00 -5°C° 0 mm 4 mps 748 mmHg 77%
18:00 -5°C° 0 mm 4 mps 748 mmHg 81%
19:00 -5°C° 0 mm 4 mps 747 mmHg 84%
20:00 -5°C° 0.1 mm 4 mps 747 mmHg 84%
21:00 -5°C° 0.1 mm 4 mps 748 mmHg 84%
22:00 -5°C° 0.1 mm 3 mps 748 mmHg 84%
23:00 -5°C° 0.1 mm 3 mps 747 mmHg 84%

Tomorrow, 17 January, Sunday

Time Temperature Precipitation Wind Pressure Humidity
00:00 -5°C° 0.1 mm 3 mps 747 mmHg 84%
01:00 -5°C° 0.1 mm 4 mps 746 mmHg 84%
02:00 -5°C° 0 mm 3 mps 746 mmHg 83%
03:00 -6°C° 0 mm 3 mps 746 mmHg 83%
04:00 -6°C° 0 mm 3 mps 745 mmHg 83%
05:00 -6°C° 0 mm 3 mps 745 mmHg 83%
06:00 -6°C° 0 mm 3 mps 745 mmHg 83%
07:00 -6°C° 0 mm 3 mps 745 mmHg 84%
08:00 -6°C° 0 mm 3 mps 745 mmHg 80%
09:00 -5°C° 0 mm 4 mps 745 mmHg 76%
10:00 -4°C° 0 mm 4 mps 745 mmHg 72%
11:00 -4°C° 0 mm 4 mps 745 mmHg 72%
12:00 -4°C° 0 mm 4 mps 745 mmHg 71%
13:00 -4°C° 0 mm 4 mps 745 mmHg 71%
14:00 -4°C° 0 mm 4 mps 745 mmHg 74%
15:00 -5°C° 0 mm 3 mps 746 mmHg 77%
16:00 -5°C° 0 mm 3 mps 746 mmHg 80%
17:00 -6°C° 0 mm 3 mps 746 mmHg 83%
18:00 -5°C° 0 mm 2 mps 747 mmHg 85%
19:00 -6°C° 0 mm 2 mps 748 mmHg 88%
20:00 -6°C° 0 mm 2 mps 748 mmHg 88%
21:00 -7°C° 0 mm 2 mps 749 mmHg 88%
22:00 -7°C° 0 mm 2 mps 749 mmHg 89%
23:00 -7°C° 0 mm 2 mps 749 mmHg 89%

Day after tomorrow, 18 January, Monday

Time Temperature Precipitation Wind Pressure Humidity
00:00 -7°C° 0 mm 2 mps 750 mmHg 89%
01:00 -7°C° 0 mm 2 mps 750 mmHg 89%
02:00 -7°C° 0 mm 2 mps 750 mmHg 89%
03:00 -7°C° 0 mm 1 mps 750 mmHg 89%
04:00 -7°C° 0 mm 1 mps 750 mmHg 89%
05:00 -6°C° 0 mm 1 mps 750 mmHg 89%
06:00 -6°C° 0 mm 1 mps 750 mmHg 89%
07:00 -6°C° 0 mm 1 mps 750 mmHg 88%
08:00 -4°C° 0 mm 1 mps 750 mmHg 86%
09:00 -3°C° 0 mm 1 mps 750 mmHg 83%
10:00 -2°C° 0 mm 1 mps 750 mmHg 81%
11:00 -2°C° 0.3 mm 1 mps 750 mmHg 84%
12:00 -1°C° 0.3 mm 1 mps 750 mmHg 87%
13:00 0°C° 0.3 mm 1 mps 750 mmHg 90%
14:00 0°C° 0.4 mm 1 mps 750 mmHg 91%
15:00 0°C° 0.4 mm 1 mps 750 mmHg 91%
16:00 0°C° 0.4 mm 1 mps 750 mmHg 92%
17:00 -2°C° 0.1 mm 2 mps 750 mmHg 90%
18:00 -2°C° 0.1 mm 2 mps 750 mmHg 88%
19:00 -2°C° 0.1 mm 3 mps 751 mmHg 87%
20:00 -2°C° 0 mm 3 mps 751 mmHg 85%
21:00 -3°C° 0 mm 4 mps 751 mmHg 84%
22:00 -3°C° 0 mm 4 mps 751 mmHg 83%
23:00 -4°C° 0 mm 3 mps 751 mmHg 83%

19 January, Tuesday

Time Temperature Precipitation Wind Pressure Humidity
00:00 -4°C° 0 mm 3 mps 751 mmHg 83%
01:00 -4°C° 0 mm 3 mps 751 mmHg 83%
02:00 -3°C° 0 mm 2 mps 751 mmHg 83%
03:00 -3°C° 0 mm 2 mps 750 mmHg 83%
04:00 -2°C° 0 mm 1 mps 750 mmHg 83%
05:00 -2°C° 0 mm 1 mps 750 mmHg 83%
06:00 -2°C° 0 mm 1 mps 750 mmHg 83%
07:00 -2°C° 0 mm 1 mps 750 mmHg 82%
08:00 -1°C° 0 mm 1 mps 750 mmHg 80%
09:00 -2°C° 0 mm 2 mps 749 mmHg 78%
10:00 -1°C° 0 mm 2 mps 749 mmHg 75%
11:00 +1°C° 0 mm 2 mps 748 mmHg 75%
12:00 +1°C° 0 mm 2 mps 748 mmHg 75%
13:00 +1°C° 0 mm 3 mps 747 mmHg 75%
14:00 +1°C° 0 mm 3 mps 747 mmHg 76%
15:00 0°C° 0 mm 3 mps 746 mmHg 76%
16:00 0°C° 0 mm 3 mps 746 mmHg 77%
17:00 +1°C° 0 mm 2 mps 746 mmHg 77%
18:00 +1°C° 0 mm 2 mps 746 mmHg 77%
19:00 -1°C° 0 mm 2 mps 746 mmHg 78%
20:00 +1°C° 0 mm 2 mps 746 mmHg 76%
21:00 +1°C° 0 mm 2 mps 746 mmHg 75%
22:00 +1°C° 0 mm 2 mps 746 mmHg 74%
23:00 -1°C° 0 mm 2 mps 745 mmHg 73%

20 January, Wednesday

Time Temperature Precipitation Wind Pressure Humidity
00:00 -1°C° 0 mm 2 mps 745 mmHg 73%
01:00 0°C° 0 mm 1 mps 745 mmHg 73%
02:00 0°C° 0 mm 1 mps 745 mmHg 73%
03:00 -2°C° 0 mm 2 mps 745 mmHg 73%
04:00 -2°C° 0 mm 2 mps 744 mmHg 74%
05:00 0°C° 0 mm 1 mps 744 mmHg 74%
06:00 0°C° 0 mm 1 mps 744 mmHg 74%
07:00 0°C° 0 mm 1 mps 744 mmHg 74%
08:00 +1°C° 0 mm 1 mps 744 mmHg 73%
09:00 -1°C° 0 mm 2 mps 744 mmHg 72%
10:00 +1°C° 0 mm 2 mps 744 mmHg 71%
11:00 +2°C° 0 mm 2 mps 743 mmHg 71%
12:00 +2°C° 0 mm 2 mps 743 mmHg 72%
13:00 +2°C° 0 mm 3 mps 743 mmHg 73%
14:00 +1°C° 0 mm 3 mps 742 mmHg 75%
15:00 +2°C° 0 mm 2 mps 742 mmHg 77%
16:00 +1°C° 0 mm 2 mps 742 mmHg 80%
17:00 0°C° 0 mm 3 mps 741 mmHg 82%
18:00 0°C° 0 mm 3 mps 741 mmHg 84%
19:00 0°C° 0 mm 3 mps 741 mmHg 86%
20:00 -1°C° 0 mm 4 mps 741 mmHg 86%
21:00 -1°C° 0 mm 5 mps 740 mmHg 85%
22:00 0°C° 0 mm 5 mps 740 mmHg 84%
23:00 -1°C° 0 mm 6 mps 739 mmHg 85%

21 January, Thursday

Time Temperature Precipitation Wind Pressure Humidity
00:00 +1°C° 0 mm 6 mps 739 mmHg 85%
01:00 +1°C° 0 mm 6 mps 738 mmHg 85%
02:00 +1°C° 0 mm 6 mps 738 mmHg 84%
03:00 +1°C° 0 mm 6 mps 737 mmHg 84%
04:00 +1°C° 0 mm 6 mps 737 mmHg 83%
05:00 0°C° 0 mm 5 mps 737 mmHg 83%
06:00 0°C° 0 mm 5 mps 737 mmHg 84%
07:00 0°C° 0 mm 4 mps 737 mmHg 85%
08:00 +1°C° 0 mm 4 mps 737 mmHg 83%
09:00 +3°C° 0 mm 4 mps 737 mmHg 82%
10:00 +4°C° 0 mm 4 mps 737 mmHg 80%
11:00 +5°C° 0 mm 4 mps 738 mmHg 78%
12:00 +6°C° 0 mm 4 mps 738 mmHg 76%
13:00 +7°C° 0 mm 5 mps 738 mmHg 74%
14:00 +6°C° 0 mm 4 mps 738 mmHg 78%
15:00 +5°C° 0 mm 4 mps 739 mmHg 81%
16:00 +4°C° 0 mm 4 mps 739 mmHg 85%
17:00 +3°C° 0 mm 3 mps 739 mmHg 85%
18:00 +3°C° 0 mm 2 mps 740 mmHg 84%
19:00 +4°C° 0 mm 1 mps 740 mmHg 84%
20:00 +4°C° 0 mm 1 mps 740 mmHg 84%
21:00 +4°C° 0 mm 1 mps 740 mmHg 85%
22:00 +4°C° 0 mm 1 mps 740 mmHg 85%
23:00 +4°C° 0 mm 1 mps 739 mmHg 86%
Show more